Mount Pleasant, MI

10:06 AM EDT on August 29, 2016 (GMT -0400)
Mount Pleasant Municipal

Weather History for KMOP - February, 2013

Change the Weather History Date:

Wednesday, February 27, 2013

  Actual Average (KAMN) Record (KAMN)
Temperature  
Mean Temperature 33 °F -  
Max Temperature 34 °F 36 °F 54 °F (1965)
Min Temperature 32 °F 18 °F -15 °F (2015)
Degree Days  
Heating Degree Days 32    
Moisture  
Dew Point 32 °F    
Average Humidity 95    
Maximum Humidity 96    
Minimum Humidity 93    
Precipitation  
Precipitation 0.10 in - - ()
Sea Level Pressure  
Sea Level Pressure 29.54 in    
Wind  
Wind Speed 12 mph (NE)    
Max Wind Speed 18 mph    
Max Gust Speed 26 mph    
Visibility 6 miles    
Events Rain , Snow    
Averages and records for this station are not official NWS values.
T = Trace of Precipitation, MM = Missing Value Source: NWS Daily Summary

Daily Weather History Graph

Daily Weather History Graph

Search for Another Location

Airport or City:

Trip Planner

Search our weather history database for the weather conditions in past years. The results will help you decide how hot, cold, wet, or windy it might be!

Date:

Astronomy

Feb. 27, 2013 Rise Set
Actual Time 7:18 AM EST 6:25 PM EST
Civil Twilight 6:49 AM EST 6:54 PM EST
Nautical Twilight 6:16 AM EST 7:27 PM EST
Astronomical Twilight 5:43 AM EST 8:00 PM EST
Moon 8:52 PM EST (2/27) 7:48 AM EST (2/27)
Length of Visible Light 12h 04m
Length of Day
11h 07m
Waning Gibbous, 96% of the Moon is Illuminated
Feb 27
Waning Gibbous
Mar 4
Last Quarter
Mar 11
New
Mar 19
First Quarter
Mar 27
Full

Hourly Weather History & Observations

Time (EST) Temp. Windchill Dew Point Humidity Pressure Visibility Wind Dir Wind Speed Gust Speed Precip Events Conditions
12:14 AM 32.9 °F 21.6 °F 31.8 °F 96% 29.57 in 2.0 mi NE 18.4 mph 26.5 mph N/A Snow Light Snow
12:35 AM 32.9 °F 22.4 °F 32.0 °F 96% 29.56 in 2.5 mi NE 16.1 mph 23.0 mph N/A Snow Light Snow
12:55 AM 33.1 °F 23.0 °F 31.8 °F 95% 29.56 in 3.0 mi NE 15.0 mph 21.9 mph N/A Snow Light Snow
1:14 AM 33.1 °F 23.0 °F 31.8 °F 95% 29.55 in 3.0 mi NE 15.0 mph 21.9 mph N/A Snow Light Snow
1:35 AM 33.1 °F 22.6 °F 31.8 °F 95% 29.55 in 4.0 mi NE 16.1 mph 24.2 mph N/A Snow Light Snow
1:55 AM 33.1 °F 23.4 °F 32.0 °F 96% 29.54 in 2.5 mi NE 13.8 mph 21.9 mph N/A Snow Light Snow
2:14 AM 32.9 °F 23.2 °F 32.0 °F 96% 29.54 in 2.5 mi NE 13.8 mph 19.6 mph N/A Snow Light Snow
2:35 AM 32.9 °F 23.7 °F 32.0 °F 96% 29.53 in 3.0 mi NE 12.7 mph 19.6 mph N/A Snow Light Snow
2:55 AM 33.1 °F 24.9 °F 32.0 °F 96% 29.53 in 2.0 mi NE 10.4 mph 19.6 mph N/A Snow Light Snow
3:15 AM 33.1 °F 24.9 °F 32.0 °F 96% 29.52 in 2.5 mi NE 10.4 mph - N/A Snow Light Snow
3:35 AM 33.1 °F 24.4 °F 32.0 °F 96% 29.51 in 2.5 mi NE 11.5 mph 16.1 mph N/A Snow Light Snow
3:55 AM 33.1 °F 25.5 °F 32.0 °F 96% 29.51 in 4.0 mi NE 9.2 mph - N/A Snow Light Snow
4:15 AM 33.3 °F 25.1 °F 32.0 °F 95% 29.51 in 4.0 mi NE 10.4 mph 18.4 mph N/A Snow Light Snow
4:35 AM 33.3 °F 25.7 °F 32.0 °F 95% 29.51 in 5.0 mi NE 9.2 mph 16.1 mph 0.01 in Snow Light Snow
4:55 AM 33.3 °F 25.1 °F 32.0 °F 95% 29.50 in 5.0 mi NE 10.4 mph - 0.02 in Snow Light Snow
5:15 AM 33.3 °F 25.7 °F 32.0 °F 95% 29.50 in 2.5 mi NE 9.2 mph - N/A Snow Light Snow
5:55 AM 33.3 °F 24.6 °F 32.0 °F 95% 29.51 in 10.0 mi NE 11.5 mph - 0.01 in   Overcast
6:15 AM 33.3 °F 25.1 °F 32.0 °F 95% 29.51 in 7.0 mi NE 10.4 mph - 0.01 in Snow Light Snow
6:35 AM 33.4 °F 24.3 °F 32.2 °F 95% 29.51 in 10.0 mi NE 12.7 mph - 0.02 in   Overcast
6:54 AM 33.4 °F 25.9 °F 32.0 °F 94% 29.51 in 10.0 mi NE 9.2 mph - 0.03 in   Overcast
7:15 AM 33.4 °F 24.8 °F 32.0 °F 94% 29.51 in 10.0 mi NE 11.5 mph - 0.01 in   Overcast
7:35 AM 33.4 °F 26.6 °F 32.0 °F 94% 29.51 in 7.0 mi NE 8.1 mph - 0.01 in   Overcast
7:54 AM 33.4 °F 26.6 °F 32.0 °F 94% 29.52 in 10.0 mi NE 8.1 mph - 0.01 in   Overcast
8:15 AM 33.4 °F 24.8 °F 32.0 °F 94% 29.52 in 10.0 mi NE 11.5 mph - N/A   Overcast
8:35 AM 33.8 °F 26.4 °F 32.2 °F 94% 29.52 in 7.0 mi NE 9.2 mph - N/A   Overcast
8:54 AM 33.8 °F 25.8 °F 32.2 °F 94% 29.53 in 10.0 mi NE 10.4 mph - N/A   Overcast
9:15 AM 33.8 °F 25.3 °F 32.2 °F 94% 29.53 in 10.0 mi NE 11.5 mph 16.1 mph N/A   Overcast
9:35 AM 33.8 °F 24.8 °F 32.2 °F 94% 29.53 in 10.0 mi NE 12.7 mph - N/A   Overcast
10:15 AM 34.0 °F 25.0 °F 32.4 °F 94% 29.53 in 7.0 mi NE 12.7 mph - N/A Rain Light Rain
10:35 AM 34.0 °F 26.0 °F 32.4 °F 94% 29.53 in 5.0 mi NE 10.4 mph - N/A   Light Drizzle
10:54 AM 34.0 °F 26.6 °F 32.4 °F 94% 29.53 in 4.0 mi NE 9.2 mph 16.1 mph N/A Rain Light Rain
11:15 AM 34.0 °F 26.6 °F 32.4 °F 94% 29.53 in 5.0 mi NE 9.2 mph - N/A Rain Light Rain
11:35 AM 34.2 °F 26.8 °F 32.7 °F 94% 29.53 in 7.0 mi NE 9.2 mph 16.1 mph 0.01 in Rain Light Rain
11:54 AM 34.0 °F 24.6 °F 32.7 °F 95% 29.53 in 4.0 mi NE 13.8 mph 17.3 mph 0.01 in   Overcast
12:15 PM 34.2 °F 27.5 °F 32.9 °F 95% 29.54 in 3.0 mi NE 8.1 mph 17.3 mph N/A   Overcast
12:35 PM 34.2 °F 26.8 °F 32.9 °F 95% 29.54 in 4.0 mi NE 9.2 mph 17.3 mph N/A   Overcast
1:15 PM 34.3 °F 26.5 °F 32.9 °F 94% 29.53 in 3.0 mi NE 10.4 mph 18.4 mph N/A   Light Drizzle
1:35 PM 34.3 °F 26.5 °F 32.9 °F 94% 29.52 in 2.5 mi NE 10.4 mph 18.4 mph N/A Rain Light Rain
1:54 PM 34.3 °F 27.0 °F 32.9 °F 94% 29.52 in 2.5 mi NE 9.2 mph - N/A Rain Light Rain
2:15 PM 34.3 °F 27.0 °F 32.9 °F 94% 29.52 in 4.0 mi NE 9.2 mph - N/A   Light Drizzle
2:35 PM 34.3 °F 27.0 °F 32.9 °F 94% 29.53 in 5.0 mi NNE 9.2 mph - N/A   Light Drizzle
2:55 PM 34.2 °F 28.2 °F 32.9 °F 95% 29.53 in 7.0 mi NE 6.9 mph - N/A   Light Drizzle
3:15 PM 34.3 °F 25.9 °F 32.9 °F 94% 29.53 in 10.0 mi NE 11.5 mph - N/A Rain Light Rain
3:35 PM 34.2 °F 27.5 °F 32.9 °F 95% 29.53 in 7.0 mi NNE 8.1 mph - N/A   Light Drizzle
3:55 PM 34.3 °F 28.4 °F 32.9 °F 94% 29.53 in 7.0 mi NNE 6.9 mph - N/A Rain Light Rain
4:15 PM 34.2 °F 27.5 °F 32.9 °F 95% 29.54 in 7.0 mi NNE 8.1 mph - N/A   Overcast
4:35 PM 34.3 °F 27.7 °F 32.9 °F 94% 29.54 in 7.0 mi NNE 8.1 mph - N/A   Overcast
4:55 PM 34.3 °F 27.0 °F 32.9 °F 94% 29.54 in 7.0 mi NNE 9.2 mph - N/A   Overcast
5:15 PM 34.2 °F 27.5 °F 32.9 °F 95% 29.55 in 5.0 mi NNE 8.1 mph - N/A   Overcast
5:34 PM 34.2 °F 26.8 °F 32.9 °F 95% 29.55 in 5.0 mi NNE 9.2 mph - N/A   Overcast
5:55 PM 34.2 °F 28.2 °F 32.7 °F 94% 29.56 in 5.0 mi NNE 6.9 mph 16.1 mph N/A   Light Drizzle
6:15 PM 34.0 °F 28.0 °F 32.9 °F 96% 29.56 in 3.0 mi NNE 6.9 mph - 0.01 in   Drizzle
6:34 PM 33.8 °F 28.6 °F 32.5 °F 95% 29.57 in 5.0 mi NNE 5.8 mph - 0.01 in   Light Drizzle
6:55 PM 33.8 °F 27.7 °F 32.4 °F 94% 29.57 in 5.0 mi NNE 6.9 mph - 0.01 in   Overcast
7:15 PM 33.8 °F 27.7 °F 32.5 °F 95% 29.58 in 7.0 mi NNE 6.9 mph - N/A   Overcast
7:34 PM 33.8 °F 27.0 °F 32.4 °F 94% 29.58 in 7.0 mi NNE 8.1 mph - N/A   Overcast
7:55 PM 33.8 °F 26.4 °F 32.4 °F 94% 29.58 in 10.0 mi North 9.2 mph - N/A   Overcast
8:15 PM 33.8 °F 26.4 °F 32.2 °F 94% 29.58 in 10.0 mi North 9.2 mph - N/A Snow Light Snow
8:34 PM 33.8 °F 27.0 °F 32.2 °F 94% 29.58 in 10.0 mi North 8.1 mph - N/A   Overcast
8:55 PM 33.8 °F 26.4 °F 32.0 °F 93% 29.58 in 10.0 mi North 9.2 mph - N/A   Overcast
9:15 PM 33.8 °F 27.0 °F 32.0 °F 93% 29.59 in 10.0 mi North 8.1 mph - N/A   Overcast
9:34 PM 33.4 °F 26.6 °F 32.0 °F 94% 29.59 in 10.0 mi North 8.1 mph - N/A   Overcast
9:55 PM 33.3 °F 26.4 °F 32.0 °F 95% 29.59 in 4.0 mi North 8.1 mph - N/A Snow Light Snow
10:15 PM 33.1 °F 26.9 °F 32.0 °F 96% 29.59 in 5.0 mi North 6.9 mph - N/A Snow Light Snow
10:34 PM 32.9 °F 26.7 °F 32.0 °F 96% 29.59 in 5.0 mi North 6.9 mph - N/A Snow Light Snow
10:55 PM 32.9 °F 27.5 °F 32.0 °F 96% 29.60 in 7.0 mi North 5.8 mph - N/A Snow Light Snow
11:15 PM 32.9 °F 26.7 °F 32.0 °F 96% 29.60 in 10.0 mi North 6.9 mph - N/A Snow Light Snow
11:34 PM 33.1 °F 26.9 °F 32.0 °F 96% 29.59 in 10.0 mi NNW 6.9 mph - 0.01 in   Overcast
11:55 PM 33.1 °F 25.5 °F 31.8 °F 95% 29.59 in 10.0 mi North 9.2 mph - 0.01 in   Overcast